Regional Weather Roundup
Issued by NWS

Home | Current Version | Previous Version | Text Only | Print | Product List | Glossary On
Versions: 1 2 3 4 5 6 7 8 9 10 11 12 13 14 15 16 17 18 19 20 21 22 23 24 25 26 27 28 29 30 31 32 33 34 35 36 37 38 39 40 41 42 43 44 45 46 47 48 49 50
000
ASUS45 KPSR 282310
RWRAZ

ARIZONA REGIONAL HOURLY WEATHER ROUNDUP
NATIONAL WEATHER SERVICE PHOENIX AZ
400 PM MST SAT FEB 28 2015

NOTE: FAIR INDICATES FEW OR NO CLOUDS BELOW 12,000 FEET WITH NO
SIGNIFICANT WEATHER AND/OR OBSTRUCTIONS TO VISIBILITY.

AZZ001>003-036-010000-
NORTHWEST ARIZONA

CITY           SKY/WX    TMP DP  RH WIND       PRES   REMARKS
BULLHEAD CITY  PTSUNNY   68  28  22 S14G28    29.71R
KINGMAN        CLOUDY    56  32  40 S23G29    29.77R
$$

AZZ004>008-015-016-018-010000-
NORTH CENTRAL ARIZONA

CITY           SKY/WX    TMP DP  RH WIND       PRES   REMARKS
GRAND CANYON   CLOUDY    37  29  72 SW17      29.79R WCI  27
PRESCOTT       PTSUNNY   53  29  39 SW21G31   29.82R
FLAGSTAFF      LGT SNOW  36  32  85 SW15      29.82R FOG     WCI  27
PAYSON         CLOUDY    45  41  87 VRB3G12   29.90R
PAGE           CLOUDY    46  35  65 N6        29.73R
$$

AZZ009>014-017-010000-
NORTHEAST ARIZONA

CITY           SKY/WX    TMP DP  RH WIND       PRES   REMARKS
WINSLOW        MOSUNNY   55  32  41 SW31G45   29.77S
SAINT JOHNS    PTSUNNY   51  35  54 W23G36    29.83R
WINDOW ROCK    LGT RAIN  42  34  73 SW18G28   29.82R
SHOW LOW       CLOUDY    39  37  93 SW22G41   29.86R WCI  29
$$

AZZ023-010000-
GREATER PHOENIX AREA

CITY           SKY/WX    TMP DP  RH WIND       PRES   REMARKS
PHOENIX        CLOUDY    69  43  38 SW8       29.80R
BUCKEYE        PTSUNNY   72  41  33 SW18G28   29.80S
GLENDALE       PTSUNNY   70  43  37 S12G21    29.81S
DEER VALLEY    PTSUNNY   67  41  38 SW16G24   29.80S
SCOTTSDALE     CLOUDY    66  42  41 SW12      29.83R
MESA-FALCON    CLOUDY    64  41  42 SW9       29.82R
MESA-GATEWAY   CLOUDY    64  46  52 SW12      29.85R
CHANDLER       CLOUDY    68  45  42 SW17      29.82S
$$

AZZ027-028-010000-
SOUTHWEST MARICOPA COUNTY AND PINAL COUNTY

CITY           SKY/WX    TMP DP  RH WIND       PRES   REMARKS
CASA GRANDE    CLOUDY    66  45  45 SW15G21   29.83S
GILA BEND      PTSUNNY   72  45  37 S17G29    29.82R
$$

AZZ503-504-507>509-010000-
SOUTHEAST ARIZONA

CITY           SKY/WX    TMP DP  RH WIND       PRES   REMARKS
TUCSON         CLOUDY    70  43  37 SW7       29.86S
DAVIS-MONTHAN  PTSUNNY   68  43  39 W13       29.84F
NOGALES        MOSUNNY   66  40  38 S20       29.91S
SIERRA VISTA   MOSUNNY   64  38  38 SW26      29.92S
DOUGLAS        PTSUNNY   67  38  34 SW18G31   29.91S
SAFFORD        CLOUDY    67  39  35 NW14      29.82S
$$

AZZ020-021-025-026-031-010000-
SOUTHWEST ARIZONA

CITY           SKY/WX    TMP DP  RH WIND       PRES   REMARKS
YUMA           PTSUNNY   75  46  35 W9        29.79S
$$

CAZ031-033-041-043-047-048-061-010000-
SOUTHERN CALIFORNIA

CITY           SKY/WX    TMP DP  RH WIND       PRES   REMARKS
DOWNTOWN L.A.  MOSUNNY   62  45  53 MISG      29.83S
L.A. AIRPORT   PTSUNNY   60  47  61 SW14G22   29.84S
SAN DIEGO      PTSUNNY   62  47  57 SW9       29.89F
BURBANK        MOSUNNY   60  42  51 S14       29.81S
ONTARIO        PTSUNNY   59  40  49 SW14      29.83S
RIVERSIDE      PTSUNNY   62  39  42 SW10      29.83S
PALM SPRINGS   MOSUNNY   66  34  30 E8        29.77S
EL CENTRO NAS  PTSUNNY   70  36  28 SW24G31   29.80S
IMPERIAL       SUNNY     71  39  31 W21       29.78R
BLYTHE         MOSUNNY   72  37  28 SW21G28   29.77R
NEEDLES        PTSUNNY   71  26  18 SW17      29.72R
$$

NVZ020-UTZ003-010000-
SOUTHERN NEVADA-UTAH

CITY           SKY/WX    TMP DP  RH WIND       PRES   REMARKS
LAS VEGAS      MOSUNNY   61  24  24 SW17G35   29.66R
SALT LAKE CITY CLOUDY    40  28  62 N9G16     29.73R WCI  34
$$

NMZ009-TXZ055-010000-
NEW MEXICO-WEST TEXAS

CITY           SKY/WX    TMP DP  RH WIND       PRES   REMARKS
ALBUQUERQUE    PTSUNNY   37  28  70 N10       29.90F WCI  30
EL PASO        MOSUNNY   68  27  21 S6        29.87F
$$


........................KEY........................
SKY/WX - SKY CONDITION/WEATHER
TMP    - TEMPERATURE IN FAHRENHEIT
DP     - DEW POINT IN FAHRENHEIT
RH     - RELATIVE HUMIDITY IN PERCENT
WIND   - DIRECTION AND SPEED IN MILES PER HOUR (MPH)
VRB    - VARIABLE WIND DIRECTION
PRES   - MEAN SEA LEVEL PRESSURE IN INCHES OF MERCURY
         F - FALLING PRESSURE   R - RISING PRESSURE
         S - STEADY PRESSURE
VSB    - VISIBILITY IN MILES
HX     - HEAT INDEX IN FAHRENHEIT
WCI    - WIND CHILL INDEX IN FAHRENHEIT
TC     - TEMPERATURE IN CELSIUS WHICH IS ALSO KNOWN AS
         TEMPERATURE IN CENTIGRADE
AFB    - AIR FORCE BASE
         LUKE AFB IS LUKE AIR FORCE BASE
         DAVIS-MONTHAN IS DAVIS-MONTHAN AIR FORCE BASE
NAS    - NAVAL AIR STATION
         EL CENTRO NAS IS EL CENTRO NAVAL AIR STATION
N/A    - NOT AVAILABLE



USA.gov is the U.S. government's official web portal to all federal, state and local government web resources and services.